Location: Asheville, NC
(35.6000°N, 82.5500°W)
Time: 06:06:21
(UTC-04:00)

Vanguard 2 - Visible Passes

Search period start: 20 May 2018 00:00
Search period end: 30 May 2018 00:00
Orbit: 552 x 2940 km, 32.9° (Epoch: 19 May)

Date Brightness Start Highest point End Pass type
(mag) Time Alt. Az. Time Alt. Az. Time Alt. Az.
20 May 11.0 22:13:50 10° W 22:26:26 25° SW 22:35:58 12° S visible
21 May 11.2 22:34:00 10° W 22:43:54 18° SW 22:52:25 10° SSW visible
22 May 11.1 20:36:06 10° W 20:51:49 40° SW 21:05:39 10° SSE visible
22 May 11.4 22:56:22 10° WSW 23:01:20 12° SW 23:05:57 10° SSW visible
23 May 11.2 20:55:05 10° W 21:09:31 32° SW 21:22:24 10° SSE visible
24 May 11.3 21:14:33 10° W 21:27:10 24° SW 21:38:37 10° S visible
25 May 11.5 21:34:58 10° W 21:44:46 18° SW 21:53:54 10° SSW visible
26 May 11.7 21:58:16 10° WSW 22:02:23 11° SW 22:06:24 10° SW visible
